Date_and_time,latitude,longitude,wind_speed,RelWindDirFrom,WindDirFrom,air_pressure,air_temperature,relative_humidity,Temp,platform_speed_wrt_ground,air_pressure_at_mean_sea_level,platform_orientation
2018-05-21 23:40,50.6304466666667,-96.9807633333333,10.6,13.6,142,985.17,19.9,33,11.79,0.0,1011.13,0.0
2018-05-21 23:50,50.6304516666667,-96.9807616666667,8.5,11.8,144,985.17,20.0,33,11.92,0.0,1011.15,0.0
2018-05-22 00:00,50.6304533333333,-96.980775,9.6,13.0,149,985.06,20.1,29,11.97,0.0,1011.01,323.4
2018-05-22 00:10,50.630455,-96.980775,10.6,13.0,151,984.92,20.9,29,11.95,0.0,1010.86,323.4
2018-05-22 00:20,50.630435,-96.9807766666667,9.8,15.0,166,984.80,21.3,26,11.89,0.0,1010.67,323.4
2018-05-22 00:30,50.63044,-96.9807716666667,9.0,14.2,177,984.78,22.5,23,11.81,0.0,1010.56,323.4
2018-05-22 00:40,50.6304383333333,-96.9807766666667,8.8,11.4,164,984.77,22.3,25,11.96,0.0,1010.61,323.4
2018-05-22 00:50,50.6304416666667,-96.98078,8.9,13.1,179,984.77,22.3,23,12.07,0.0,1010.56,323.4
2018-05-22 01:00,50.6304366666667,-96.9807716666667,8.1,10.3,160,984.72,22.5,25,12.17,0.0,1010.50,240.8
2018-05-22 01:10,50.6304416666667,-96.9807716666667,8.6,10.4,161,984.68,21.8,26,12.24,0.0,1010.51,240.8
2018-05-22 01:20,50.630445,-96.98077,7.0,8.6,169,984.75,21.6,30,12.32,0.0,1010.51,240.8
2018-05-22 01:30,50.6304466666667,-96.9807683333333,6.8,7.9,166,984.73,21.3,30,12.36,0.0,1010.53,240.8
2018-05-22 01:40,50.6304483333333,-96.980765,5.8,7.3,160,984.70,20.6,31,12.41,0.0,1010.53,240.8
2018-05-22 01:50,50.6304516666667,-96.9807733333333,6.3,7.6,151,984.74,19.2,41,12.47,0.0,1010.63,240.8
2018-05-22 02:00,50.6304416666667,-96.9807633333333,7.0,8.3,159,984.72,17.9,47,12.51,0.0,1010.63,0.0
2018-05-22 02:10,50.6304466666667,-96.9807733333333,6.7,7.8,166,984.74,16.5,54,12.55,0.0,1010.69,0.0
2018-05-22 02:20,50.6304433333333,-96.980765,6.7,7.6,169,984.77,16.7,56,12.50,0.0,1010.66,0.0
2018-05-22 02:30,50.6304383333333,-96.98077,5.2,5.7,175,984.82,17.0,54,12.25,0.0,1010.71,0.0
2018-05-22 02:40,50.6303866666667,-96.9807833333333,4.9,5.6,173,984.90,16.9,49,11.90,0.0,1010.79,0.0
2018-05-22 02:50,50.6304283333333,-96.9807666666667,4.5,4.8,177,984.97,16.7,47,11.68,0.0,1010.87,0.0
2018-05-22 03:00,50.63043,-96.9807683333333,5.1,6.3,178,985.01,16.5,45,11.56,0.0,1010.96,166.7
2018-05-22 03:10,50.63043,-96.9807666666667,5.2,5.9,182,985.05,16.4,44,11.28,0.0,1011.00,166.7
2018-05-22 03:20,50.6304316666667,-96.9807683333333,5.2,5.8,187,985.10,17.0,39,11.20,0.0,1011.04,166.7
2018-05-22 03:30,50.630445,-96.9807683333333,5.8,6.6,188,985.09,17.7,36,11.15,0.0,1011.04,166.7
2018-05-22 03:40,50.6304483333333,-96.98077,5.9,6.6,185,985.05,17.3,36,11.21,0.0,1011.07,166.7
2018-05-22 03:50,50.6304466666667,-96.9807666666667,6.6,7.8,193,985.10,17.6,30,11.18,0.0,1011.17,166.7
2018-05-22 04:00,50.630445,-96.980765,6.9,8.9,193,985.13,18.5,26,11.16,0.0,1011.22,48.3
2018-05-22 04:10,50.6304516666667,-96.980755,6.5,7.7,186,985.18,18.0,27,11.07,0.0,1011.29,48.3
2018-05-22 04:20,50.6304683333333,-96.9807316666667,6.6,8.1,184,985.23,17.7,27,11.16,0.0,1011.34,48.3
2018-05-22 04:30,50.6304333333333,-96.9807533333333,7.3,8.5,174,985.23,17.0,35,11.06,0.0,1011.37,48.3
2018-05-22 04:40,50.63044,-96.9807566666667,7.4,9.1,194,985.23,16.6,32,11.31,0.0,1011.41,48.3
2018-05-22 04:50,50.6304383333333,-96.9807633333333,7.7,10.8,189,985.21,16.8,29,11.60,0.0,1011.39,48.3
2018-05-22 05:00,50.630435,-96.9807566666667,8.0,10.0,186,985.13,16.7,26,11.78,0.0,1011.31,131.7
2018-05-22 05:10,50.630435,-96.9807566666667,7.6,8.4,188,985.03,16.2,28,11.73,0.0,1011.21,131.7
2018-05-22 05:20,50.630415,-96.9807783333333,7.8,9.4,189,985.01,16.0,28,11.60,0.0,1011.16,131.7
2018-05-22 05:30,50.630435,-96.9807616666667,7.6,8.4,186,984.96,15.9,27,11.53,0.0,1011.13,131.7
2018-05-22 05:40,50.6304316666667,-96.9807583333333,7.2,7.9,182,984.88,15.4,29,11.60,0.0,1011.06,131.7
2018-05-22 05:50,50.63044,-96.98074,6.6,8.2,182,984.86,14.9,33,11.56,0.0,1011.02,131.7
2018-05-22 06:00,50.630445,-96.9807633333333,6.6,7.4,178,984.84,14.8,33,11.41,0.0,1011.03,18.9
2018-05-22 06:10,50.6304416666667,-96.9807683333333,7.2,8.5,178,984.83,14.6,35,11.18,0.0,1011.04,18.9
2018-05-22 06:20,50.6304383333333,-96.980765,6.3,7.9,183,984.87,14.3,36,11.38,0.0,1011.13,18.9
2018-05-22 06:30,50.6304383333333,-96.9807616666667,5.9,6.5,187,984.87,14.0,36,11.69,0.0,1011.16,18.9
2018-05-22 06:40,50.6304366666667,-96.9807616666667,5.7,6.5,198,984.90,14.3,32,11.28,0.0,1011.16,18.9
2018-05-22 06:50,50.6304466666667,-96.9807683333333,6.0,7.5,191,984.88,14.7,31,10.83,0.0,1011.13,18.9
2018-05-22 07:00,50.6304433333333,-96.9807566666667,5.7,6.5,190,984.81,14.4,31,10.99,0.0,1011.10,90.0
2018-05-22 07:10,50.6304433333333,-96.9807633333333,6.3,7.8,194,984.82,14.1,32,11.45,0.0,1011.13,90.0
2018-05-22 07:20,50.6304183333333,-96.980755,7.1,8.3,189,984.87,14.2,32,11.47,0.0,1011.18,90.0
2018-05-22 07:30,50.6304283333333,-96.9807616666667,7.5,8.4,185,984.87,14.1,32,11.12,0.0,1011.21,90.0
2018-05-22 07:40,50.6304466666667,-96.9807633333333,7.4,9.0,188,984.90,13.6,34,10.74,0.0,1011.28,90.0
2018-05-22 07:50,50.6304433333333,-96.9807633333333,7.9,9.5,193,984.93,13.2,36,11.09,0.0,1011.34,90.0
2018-05-22 08:00,50.63044,-96.9807633333333,8.0,10.1,197,984.96,13.4,35,11.53,0.0,1011.37,347.4
2018-05-22 08:10,50.63044,-96.9807633333333,7.1,9.3,192,985.01,13.3,38,11.40,0.0,1011.45,347.4
2018-05-22 08:20,50.63044,-96.98076,8.0,9.9,190,985.07,13.3,39,11.30,0.0,1011.51,347.4
2018-05-22 08:30,50.6304416666667,-96.98076,8.4,10.2,198,985.04,13.2,39,11.42,0.0,1011.47,347.4
2018-05-22 08:40,50.63044,-96.9807583333333,8.7,12.0,201,984.97,13.4,38,11.70,0.0,1011.37,347.4
2018-05-22 08:50,50.63044,-96.9807566666667,9.2,12.6,206,984.98,13.6,39,11.91,0.0,1011.40,347.4
2018-05-22 09:00,50.63044,-96.9807583333333,8.2,12.0,208,985.06,13.7,40,11.98,0.0,1011.49,90.0
2018-05-22 09:10,50.63044,-96.9807566666667,8.0,10.8,213,985.14,13.7,39,12.04,0.0,1011.56,90.0
2018-05-22 09:20,50.6304216666667,-96.98076,8.4,13.0,218,985.19,13.4,39,12.23,0.0,1011.63,90.0
2018-05-22 09:30,50.6304466666667,-96.9807433333333,9.2,12.0,217,985.24,13.2,39,12.32,0.0,1011.72,90.0
2018-05-22 09:40,50.6304516666667,-96.9807466666667,9.2,12.0,215,985.28,12.9,40,12.37,0.0,1011.78,90.0
2018-05-22 09:50,50.630435,-96.9807466666667,9.4,12.7,216,985.30,12.8,41,12.45,0.0,1011.80,90.0
2018-05-22 10:00,50.6304383333333,-96.9807483333333,9.2,11.2,213,985.35,12.8,42,12.47,0.0,1011.86,90.0
2018-05-22 10:10,50.630455,-96.98074,9.2,11.7,214,985.39,13.0,43,12.46,0.0,1011.89,90.0
2018-05-22 10:20,50.63045,-96.98075,9.3,12.1,219,985.47,13.1,45,12.43,0.0,1011.97,90.0
2018-05-22 10:30,50.6304516666667,-96.9807533333333,9.6,12.8,216,985.48,13.0,47,12.45,0.0,1011.97,90.0
2018-05-22 10:40,50.6304483333333,-96.9807566666667,9.1,11.4,216,985.59,12.9,48,12.42,0.0,1012.09,90.0
2018-05-22 10:50,50.6304483333333,-96.9807583333333,7.7,9.7,208,985.63,12.7,50,12.43,0.0,1012.14,90.0
2018-05-22 11:00,50.6304383333333,-96.9807466666667,7.4,10.0,203,985.70,12.7,53,12.41,0.0,1012.20,90.0
2018-05-22 11:10,50.6304383333333,-96.9807583333333,8.0,10.1,201,985.73,12.5,55,12.34,0.0,1012.26,90.0
2018-05-22 11:20,50.63044,-96.98076,7.1,8.8,202,985.79,12.4,56,12.30,0.0,1012.33,90.0
2018-05-22 11:30,50.6304383333333,-96.9807583333333,7.4,10.1,189,985.86,12.0,59,12.26,0.0,1012.43,90.0
2018-05-22 11:40,50.6304366666667,-96.9807566666667,8.3,10.3,195,985.96,12.1,59,12.30,0.0,1012.54,90.0
2018-05-22 11:50,50.6304366666667,-96.9807566666667,8.1,10.4,195,986.06,12.5,60,12.29,0.0,1012.63,90.0
2018-05-22 12:00,50.6304383333333,-96.9807583333333,8.2,11.1,193,986.08,12.7,60,12.19,0.0,1012.63,0.0
2018-05-22 12:10,50.630435,-96.9807683333333,9.1,11.6,191,986.07,13.0,61,12.23,0.0,1012.60,0.0
2018-05-22 12:20,50.6304383333333,-96.98077,9.4,11.8,192,986.15,13.3,62,12.17,0.0,1012.67,0.0
2018-05-22 12:30,50.6304416666667,-96.9807683333333,9.1,11.2,195,986.15,13.7,62,12.17,0.0,1012.66,0.0
2018-05-22 12:40,50.63044,-96.9807666666667,9.3,12.2,194,986.15,14.0,62,12.23,0.0,1012.66,0.0
2018-05-22 12:50,50.63044,-96.980765,9.9,12.9,197,986.19,14.5,61,12.22,0.0,1012.67,0.0
2018-05-22 13:00,50.6304416666667,-96.9807633333333,8.3,9.9,197,986.23,14.7,61,12.22,0.0,1012.71,270.0
2018-05-22 13:10,50.6304416666667,-96.980765,8.6,11.3,194,986.23,14.9,62,12.27,0.0,1012.71,270.0
2018-05-22 13:20,50.6304416666667,-96.980765,9.2,10.9,194,986.20,15.2,61,12.29,0.0,1012.68,270.0
2018-05-22 13:30,50.6304416666667,-96.980765,9.6,11.8,191,986.21,15.4,61,12.29,0.0,1012.68,270.0
2018-05-22 13:40,50.6304416666667,-96.980765,8.8,10.9,190,986.20,15.8,61,12.30,0.0,1012.63,270.0
2018-05-22 13:50,50.6304416666667,-96.980765,9.9,12.4,191,986.26,16.2,60,12.29,0.0,1012.67,270.0
2018-05-22 14:00,50.6304433333333,-96.9807633333333,10.5,12.8,188,986.26,16.8,59,12.16,0.0,1012.62,270.0
2018-05-22 14:10,50.6304433333333,-96.9807616666667,10.7,12.9,190,986.22,17.4,57,12.20,0.0,1012.53,270.0
2018-05-22 14:20,50.6304416666667,-96.9807616666667,7.8,11.9,190,986.22,17.4,58,12.26,0.0,1012.52,270.0
2018-05-22 14:30,50.6304366666667,-96.9807483333333,6.6,10.7,185,986.25,17.5,59,12.29,0.0,1012.54,270.0
2018-05-22 14:40,50.6304366666667,-96.980745,6.7,10.8,180,986.33,17.0,61,12.23,0.0,1012.62,270.0
2018-05-22 14:50,50.6304383333333,-96.9807483333333,5.6,8.3,159,986.38,16.8,64,12.11,0.0,1012.67,270.0
2018-05-22 15:00,50.6304383333333,-96.9807516666667,6.9,9.0,163,986.39,16.7,63,11.87,0.0,1012.68,90.0
2018-05-22 15:10,50.63041,-96.9807466666667,7.4,9.1,154,986.37,17.6,61,11.70,0.0,1012.59,90.0
2018-05-22 15:20,50.6304266666667,-96.9807533333333,7.1,8.6,150,986.38,17.6,63,11.51,0.0,1012.60,90.0
2018-05-22 15:30,50.6304466666667,-96.9807566666667,8.3,10.3,151,986.40,18.0,59,11.40,0.0,1012.58,90.0
2018-05-22 15:40,50.63045,-96.98076,8.2,10.9,144,986.45,17.6,64,11.20,0.0,1012.63,90.0
2018-05-22 15:50,50.6304466666667,-96.9807633333333,7.9,10.4,136,986.52,16.0,76,11.05,0.0,1012.76,90.0
2018-05-22 16:00,50.630445,-96.980765,8.1,10.4,134,986.58,15.0,85,10.90,0.0,1012.84,0.0
2018-05-22 16:10,50.6304433333333,-96.980765,8.2,9.7,130,986.60,14.2,92,10.74,0.0,1012.88,0.0
2018-05-22 16:20,50.6304416666667,-96.9807666666667,7.3,10.4,128,986.61,13.7,95,10.52,0.0,1012.92,0.0
2018-05-22 16:30,50.6304333333333,-96.9807633333333,6.3,12.4,127,986.62,13.8,93,10.71,0.0,1012.95,0.0
2018-05-22 16:40,50.6304366666667,-96.980765,11.2,12.4,119,986.61,14.3,91,10.87,0.0,1012.92,0.0
2018-05-22 16:50,50.6304383333333,-96.980765,10.6,11.8,120,986.66,14.2,92,10.83,0.0,1012.98,0.0
2018-05-22 17:00,50.63044,-96.980765,11.5,13.6,125,986.71,14.4,91,10.61,0.0,1012.98,90.0
2018-05-22 17:10,50.63044,-96.9807633333333,12.2,13.4,125,986.71,14.9,89,10.43,0.0,1012.96,90.0
2018-05-22 17:20,50.63044,-96.98076,12.0,13.8,127,986.76,15.0,88,10.57,0.0,1012.99,90.0
2018-05-22 17:30,50.63044,-96.9807583333333,12.3,13.7,127,986.78,15.9,82,10.84,0.0,1012.99,90.0
2018-05-22 17:40,50.6304316666667,-96.980755,12.9,14.3,123,986.82,15.8,84,11.08,0.0,1013.11,90.0
2018-05-22 17:50,50.6304316666667,-96.9807583333333,12.7,14.1,121,986.78,15.6,85,10.98,0.0,1013.12,90.0
2018-05-22 18:00,50.630425,-96.9807783333333,10.9,12.7,116,986.79,15.5,83,11.02,0.0,1013.17,234.2
2018-05-22 18:10,50.6304333333333,-96.980735,11.8,13.7,112,986.73,15.6,82,10.62,0.0,1013.12,234.2
2018-05-22 18:20,50.6304383333333,-96.9807566666667,11.1,13.7,112,986.74,15.7,82,10.38,0.0,1013.14,234.2
2018-05-22 18:30,50.63044,-96.9807583333333,10.6,12.6,109,986.69,16.0,79,10.36,0.0,1013.05,234.2
2018-05-22 18:40,50.6304383333333,-96.9807566666667,11.8,13.1,119,986.65,15.5,83,10.75,0.0,1013.02,234.2
2018-05-22 18:50,50.6304466666667,-96.9807483333333,11.5,12.9,116,986.62,16.4,78,11.01,0.0,1012.95,234.2
2018-05-22 19:00,50.6304416666667,-96.9807533333333,9.6,12.4,112,986.54,16.4,77,11.21,0.0,1012.84,90.0
2018-05-22 19:10,50.63044,-96.980755,12.5,14.4,116,986.42,16.4,76,11.09,0.0,1012.71,90.0
2018-05-22 19:20,50.63044,-96.9807566666667,11.6,14.2,114,986.39,16.6,72,10.99,0.0,1012.62,90.0
2018-05-22 19:30,50.63044,-96.9807583333333,13.5,15.5,112,986.32,16.2,74,10.89,0.0,1012.58,90.0
2018-05-22 19:40,50.630435,-96.980765,13.3,14.8,102,986.27,17.7,64,10.77,0.0,1012.48,90.0
2018-05-22 19:50,50.63044,-96.9807683333333,12.5,14.1,102,986.22,17.2,68,10.71,0.0,1012.45,90.0
2018-05-22 20:00,50.6304383333333,-96.980765,11.4,13.4,100,986.17,17.4,67,10.70,0.0,1012.38,0.0
2018-05-22 20:10,50.6304416666667,-96.980765,9.0,12.6,97,986.16,17.1,69,10.83,0.0,1012.38,0.0
2018-05-22 20:20,50.6304416666667,-96.980765,9.8,11.6,104,986.18,16.9,71,10.87,0.0,1012.40,0.0
2018-05-22 20:30,50.6304416666667,-96.980765,10.4,14.1,105,986.13,15.9,78,10.61,0.0,1012.42,0.0
2018-05-22 20:40,50.6304433333333,-96.980765,12.0,13.8,109,986.10,16.0,76,10.38,0.0,1012.35,0.0
2018-05-22 20:50,50.6304433333333,-96.980765,11.5,13.5,107,986.06,16.2,74,10.29,0.0,1012.29,0.0
2018-05-22 21:00,50.6304416666667,-96.9807733333333,10.3,12.4,109,986.06,16.7,72,10.48,0.0,1012.27,43.4
2018-05-22 21:10,50.6304466666667,-96.98076,12.6,14.3,115,986.07,16.2,74,11.17,0.0,1012.29,43.4
2018-05-22 21:20,50.6304466666667,-96.9807766666667,12.6,14.9,122,986.08,16.8,70,11.30,0.0,1012.29,43.4
2018-05-22 21:30,50.6304466666667,-96.9807633333333,13.6,16.3,128,986.08,18.3,61,11.05,0.0,1012.15,43.4
2018-05-22 21:40,50.6304383333333,-96.980755,11.4,13.5,113,986.13,18.1,63,10.92,0.0,1012.24,43.4
2018-05-22 21:50,50.63044,-96.9807566666667,11.1,11.6,112,986.12,17.1,70,11.21,0.0,1012.27,43.4
2018-05-22 22:00,50.6304416666667,-96.9807583333333,11.3,12.2,110,986.13,16.7,71,11.19,0.0,1012.30,270.0
2018-05-22 22:10,50.6304433333333,-96.9807583333333,10.5,11.2,108,986.13,16.4,72,10.84,0.0,1012.33,270.0
2018-05-22 22:20,50.630445,-96.98076,10.1,11.2,108,986.14,16.4,72,10.47,0.0,1012.39,270.0
2018-05-22 22:30,50.630445,-96.9807616666667,9.3,10.5,102,986.11,17.0,69,10.29,0.0,1012.33,270.0
2018-05-22 22:40,50.630445,-96.9807633333333,7.2,9.1,97,986.14,16.5,73,10.15,0.0,1012.37,270.0
2018-05-22 22:50,50.6304516666667,-96.9807716666667,6.6,8.1,88,986.20,15.6,82,9.97,0.0,1012.45,270.0
2018-05-22 23:00,50.6304333333333,-96.9807583333333,3.7,6.9,81,986.22,14.4,90,9.86,0.0,1012.55,165.5
2018-05-22 23:10,50.630435,-96.98076,4.3,8.0,94,986.25,15.4,83,9.79,0.0,1012.50,165.5
2018-05-22 23:20,50.630435,-96.98076,3.8,6.3,120,986.31,16.4,78,9.72,0.0,1012.45,165.5
2018-05-22 23:30,50.6304366666667,-96.9807633333333,3.9,5.8,110,986.34,17.2,72,9.67,0.0,1012.45,165.5
2018-05-22 23:40,50.6304366666667,-96.9807566666667,4.4,6.0,105,986.35,17.5,72,9.65,0.0,1012.49,165.5
2018-05-22 23:50,50.6304433333333,-96.9807866666667,3.9,6.4,97,986.30,16.9,75,9.64,0.0,1012.49,165.5
